User: anonymous   Login
Location: Unspecified
(0.0000°N, 0.0000°E)
Time: 10:10:14
(UTC+00:00)
Language:

Tandem-X - Orbit

View from above orbital plane
View from above orbital plane
View from above satellite
View from above satellite

Ground track
Ground track

The orbit data is extracted from the following two-line orbital elements,

1 36605U 10030A   17295.04292287  .00000379  00000-0  21246-4 0  9990
2 36605  97.4462 300.9070 0002033  68.3075   5.2001 15.19154401406874
Epoch (UTC): 22 October 2017 01:01:48
Eccentricity: 0.0002033
inclination: 97.4462°
perigee height: 507 km
apogee height: 510 km
right ascension of ascending node: 300.9070°
argument of perigee: 68.3075°
revolutions per day: 15.19154401
mean anomaly at epoch: 5.2001°
orbit number at epoch: 40687

The dashed part of the orbit path shows where the satellite is in the earth's shadow,  

DLR